Location: Cudham
(51.3000°N, 0.0667°E)
Time: 00:06:13
(UTC+00:00)

Cosmos 1470 - Pass Details

Date: 15 May 2026
Orbit: 420 x 431 km, 82.5° (Epoch: 9 June)

Event Time Altitude Azimuth Distance (km) Brightness Sun altitude
Rises 22:45:54 0° 350° (N) 2,389 7.7 -18.0°
Reaches altitude 10° 22:47:58 10° 352° (N) 1,518 6.3 -18.1°
Maximum altitude 22:51:15 76° 79° (ENE) 440 2.2 -18.2°
Enters shadow 22:51:41 62° 141° (SE) 478 2.2 -18.2°
